Weather History for KSPW - April, 2013

Change the Weather History Date:

Friday, April 26, 2013

  Actual Average Record
Temperature  
Mean Temperature 58 °F -  
Max Temperature 73 °F 65 °F 88 °F (1987)
Min Temperature 41 °F 40 °F 25 °F (2002)
Degree Days  
Heating Degree Days 6    
Growing Degree Days 8 (Base 50)    
Moisture  
Dew Point 35 °F    
Average Humidity 46    
Maximum Humidity 76    
Minimum Humidity 20    
Precipitation  
Precipitation 0.00 in - - ()
Sea Level Pressure  
Sea Level Pressure 30.06 in    
Wind  
Wind Speed 12 mph (WSW)    
Max Wind Speed 22 mph    
Max Gust Speed 28 mph    
Visibility 10 miles    
Events      
Averages and records for this station are not official NWS values.
T = Trace of Precipitation, MM = Missing Value Source: NWS Daily Summary

Daily Weather History Graph

Daily Weather History Graph

Search for Another Location

Airport or City:

Trip Planner

Search our weather history database for the weather conditions in past years. The results will help you decide how hot, cold, wet, or windy it might be!

Date:

Astronomy

Apr. 26, 2013 Rise Set
Actual Time 6:21 AM CDT 8:16 PM CDT
Civil Twilight 5:50 AM CDT 8:47 PM CDT
Nautical Twilight 5:13 AM CDT 9:25 PM CDT
Astronomical Twilight 4:32 AM CDT 10:06 PM CDT
Moon 9:42 PM CDT (4/26) 6:47 AM CDT (4/26)
Length of Visible Light 14h 57m
Length of Day
13h 55m
Full, 99% of the Moon is Illuminated
Apr 26
Full
May 2
Last Quarter
May 9
New
May 17
First Quarter
May 24
Full

Hourly Weather History & Observations

Time (CDT) Temp. Windchill Dew Point Humidity Pressure Visibility Wind Dir Wind Speed Gust Speed Precip Events Conditions
12:53 AM 51.1 °F - 37.0 °F 59% 30.03 in 10.0 mi South 16.1 mph - N/A   Overcast
2:53 AM 48.9 °F - 37.0 °F 64% 29.99 in 10.0 mi South 12.7 mph - N/A   Clear
3:53 AM 48.9 °F - 37.0 °F 64% 29.99 in 10.0 mi SSW 12.7 mph - N/A   Clear
4:53 AM 48.0 °F - 37.0 °F 66% 29.99 in 10.0 mi South 12.7 mph - N/A   Clear
5:53 AM 46.0 °F 40.6 °F 37.0 °F 71% 29.99 in 10.0 mi South 11.5 mph - N/A   Clear
6:53 AM 46.0 °F 41.0 °F 36.0 °F 68% 30.00 in 10.0 mi SSW 10.4 mph - N/A   Clear
7:53 AM 50.0 °F - 37.0 °F 61% 30.02 in 10.0 mi SSW 11.5 mph - N/A   Clear
8:53 AM 55.0 °F - 37.0 °F 51% 30.03 in 10.0 mi SW 17.3 mph 24.2 mph N/A   Clear
9:53 AM 60.1 °F - 37.9 °F 44% 30.04 in 10.0 mi SW 21.9 mph 27.6 mph N/A   Clear
10:53 AM 63.0 °F - 37.9 °F 40% 30.06 in 10.0 mi West 15.0 mph - N/A   Clear
11:53 AM 66.0 °F - 37.9 °F 36% 30.08 in 10.0 mi West 13.8 mph - N/A   Clear
12:53 PM 70.0 °F - 36.0 °F 29% 30.08 in 10.0 mi NNW 10.4 mph 17.3 mph N/A   Clear
1:53 PM 71.1 °F - 34.0 °F 26% 30.07 in 10.0 mi Variable 3.5 mph - N/A   Clear
2:53 PM 73.0 °F - 33.1 °F 23% 30.07 in 10.0 mi NNW 4.6 mph - N/A   Clear
3:53 PM 73.0 °F - 32.0 °F 22% 30.06 in 10.0 mi Variable 4.6 mph - N/A   Clear
4:53 PM 73.0 °F - 30.9 °F 21% 30.07 in 10.0 mi North 4.6 mph - N/A   Clear
5:53 PM 73.0 °F - 30.0 °F 20% 30.08 in 10.0 mi WNW 11.5 mph - N/A   Clear
6:53 PM 69.1 °F - 32.0 °F 25% 30.09 in 10.0 mi NNW 13.8 mph - N/A   Clear
7:53 PM 63.0 °F - 28.9 °F 28% 30.12 in 10.0 mi NNW 12.7 mph - N/A   Clear
8:53 PM 55.9 °F - 35.1 °F 45% 30.13 in 10.0 mi North 8.1 mph - N/A   Clear
9:53 PM 48.0 °F - 35.1 °F 61% 30.15 in 10.0 mi North 9.2 mph - N/A   Clear
10:53 PM 44.1 °F 40.8 °F 34.0 °F 68% 30.16 in 10.0 mi NW 5.8 mph - N/A   Clear
11:53 PM 41.0 °F 38.0 °F 34.0 °F 76% 30.17 in 10.0 mi South 4.6 mph - N/A   Clear